TimeCXT,TemperatureF,Dew PointF,Humidity,Sea Level PressureIn,VisibilityMPH,Wind Direction,Wind SpeedMPH,Gust SpeedMPH,PrecipitationIn,Events,Conditions,WindDirDegrees,DateUTC
12:00 AM,76,71,81,29.89,,SSE,10.4,,,,,150,2012-11-10 17:00:00
12:00 AM,77.0,71.6,83,29.92,6.2,SSE,10.4,-,N/A,,Mostly Cloudy,150,2012-11-10 17:00:00
12:06 AM,75.2,71.6,89,29.92,6.2,SSE,9.2,-,N/A,,Scattered Clouds,150,2012-11-10 17:06:00
1:00 AM,76,70,76,29.86,,SE,9.2,,,,,140,2012-11-10 18:00:00
1:00 AM,75.2,69.8,83,29.89,6.2,SE,9.2,-,N/A,,Scattered Clouds,140,2012-11-10 18:00:00
1:18 AM,75.2,71.6,89,29.89,6.2,SSE,8.1,-,N/A,,Mostly Cloudy,150,2012-11-10 18:18:00
1:57 AM,75.2,71.6,89,29.89,6.2,SSE,6.9,-,N/A,,Mostly Cloudy,150,2012-11-10 18:57:00
2:00 AM,77.0,71.6,83,29.89,6.2,SSE,6.9,-,N/A,,Mostly Cloudy,150,2012-11-10 19:00:00
2:15 AM,75.2,71.6,89,29.86,6.2,SSE,9.2,-,N/A,,Mostly Cloudy,150,2012-11-10 19:15:00
2:40 AM,75.2,71.6,89,29.86,6.2,SSE,8.1,-,N/A,,Mostly Cloudy,160,2012-11-10 19:40:00
2:55 AM,75.2,71.6,89,29.86,6.2,SSE,8.1,-,N/A,,Mostly Cloudy,150,2012-11-10 19:55:00
3:00 AM,76,71,82,29.84,,SSE,8.1,,,,Overcast,160,2012-11-10 20:00:00
3:00 AM,75.2,71.6,89,29.86,6.2,SSE,8.1,-,N/A,,Mostly Cloudy,160,2012-11-10 20:00:00
3:06 AM,75.2,71.6,89,29.86,6.2,SSE,8.1,-,N/A,,Overcast,160,2012-11-10 20:06:00
4:00 AM,76,70,78,29.85,,SSE,9.2,,,,,160,2012-11-10 21:00:00
4:00 AM,75.2,69.8,83,29.89,6.2,SSE,9.2,-,N/A,,Mostly Cloudy,160,2012-11-10 21:00:00
4:03 AM,75.2,69.8,83,29.89,6.2,SSE,9.2,-,N/A,,Scattered Clouds,160,2012-11-10 21:03:00
4:25 AM,75.2,69.8,83,29.89,6.2,SSE,9.2,-,N/A,,Mostly Cloudy,150,2012-11-10 21:25:00
4:53 AM,75.2,69.8,83,29.89,6.2,SSE,9.2,-,N/A,,Mostly Cloudy,150,2012-11-10 21:53:00
5:00 AM,75.2,69.8,83,29.92,6.2,SE,10.4,-,N/A,,Mostly Cloudy,140,2012-11-10 22:00:00
5:48 AM,77.0,69.8,78,29.92,6.2,SE,12.7,-,N/A,,Mostly Cloudy,130,2012-11-10 22:48:00
6:00 AM,76,70,76,29.88,,SSE,10.4,,,,Overcast,150,2012-11-10 23:00:00
6:00 AM,77.0,69.8,78,29.92,6.2,SSE,10.4,-,N/A,,Mostly Cloudy,150,2012-11-10 23:00:00
6:11 AM,75.2,69.8,83,29.92,6.2,SE,10.4,-,N/A,,Scattered Clouds,140,2012-11-10 23:11:00
7:00 AM,78,70,69,29.89,,SE,13.8,,,,,130,2012-11-11 00:00:00
7:00 AM,77.0,69.8,78,29.92,6.2,SE,13.8,-,N/A,,Scattered Clouds,130,2012-11-11 00:00:00
8:00 AM,80.6,69.8,70,29.95,6.2,SE,16.1,-,N/A,,Scattered Clouds,130,2012-11-11 01:00:00
9:00 AM,80,69,62,29.92,,ESE,17.3,,,,,120,2012-11-11 02:00:00
9:00 AM,80.6,69.8,70,29.95,6.2,ESE,17.3,-,N/A,,Scattered Clouds,120,2012-11-11 02:00:00
10:00 AM,81,69,59,29.91,,SE,17.3,,,,,130,2012-11-11 03:00:00
10:00 AM,80.6,69.8,70,29.95,6.2,SE,17.3,-,N/A,,Scattered Clouds,130,2012-11-11 03:00:00
11:00 AM,82.4,69.8,66,29.92,6.2,SE,16.1,-,N/A,,Scattered Clouds,130,2012-11-11 04:00:00
12:00 PM,82,70,58,29.87,,SE,15.0,,,,,140,2012-11-11 05:00:00
12:00 PM,82.4,69.8,66,29.89,6.2,SE,15.0,-,N/A,,Mostly Cloudy,140,2012-11-11 05:00:00
1:00 PM,83,69,55,29.85,,SE,12.7,,,,,140,2012-11-11 06:00:00
1:00 PM,84.2,69.8,62,29.89,6.2,SE,12.7,-,N/A,,Mostly Cloudy,140,2012-11-11 06:00:00
2:00 PM,82.4,69.8,66,29.86,6.2,SE,13.8,-,N/A,,Mostly Cloudy,140,2012-11-11 07:00:00
3:00 PM,81,70,61,29.82,,SE,15.0,,,,,140,2012-11-11 08:00:00
3:00 PM,80.6,69.8,70,29.86,6.2,SE,15.0,-,N/A,,Scattered Clouds,140,2012-11-11 08:00:00
4:00 PM,80,69,61,29.81,,SE,13.8,,,,,130,2012-11-11 09:00:00
4:00 PM,80.6,68.0,65,29.86,6.2,SE,13.8,-,N/A,,Mostly Cloudy,130,2012-11-11 09:00:00
5:00 PM,78.8,69.8,74,29.83,6.2,SE,12.7,-,N/A,,Scattered Clouds,140,2012-11-11 10:00:00
6:00 PM,77,70,73,29.83,,SE,13.8,,,,,140,2012-11-11 11:00:00
6:00 PM,77.0,69.8,78,29.86,6.2,SE,13.8,-,N/A,,Scattered Clouds,140,2012-11-11 11:00:00
7:00 PM,77,71,76,29.86,,SE,12.7,,,,,140,2012-11-11 12:00:00
7:00 PM,77.0,71.6,83,29.89,6.2,SE,12.7,-,N/A,,Mostly Cloudy,140,2012-11-11 12:00:00
7:21 PM,77.0,69.8,78,29.89,6.2,SE,13.8,-,N/A,,Mostly Cloudy,130,2012-11-11 12:21:00
7:33 PM,77.0,69.8,78,29.92,6.2,SE,13.8,-,N/A,,Mostly Cloudy,140,2012-11-11 12:33:00
7:57 PM,77.0,69.8,78,29.92,6.2,SE,13.8,-,N/A,,Scattered Clouds,140,2012-11-11 12:57:00
8:00 PM,77.0,69.8,78,29.92,6.2,SE,13.8,-,N/A,,Scattered Clouds,130,2012-11-11 13:00:00
8:52 PM,77.0,69.8,78,29.92,6.2,SE,12.7,-,N/A,,Mostly Cloudy,140,2012-11-11 13:52:00
9:00 PM,76,69,74,29.90,,SE,15.0,,,,,140,2012-11-11 14:00:00
9:00 PM,77.0,69.8,78,29.92,6.2,SE,15.0,-,N/A,,Scattered Clouds,140,2012-11-11 14:00:00
9:09 PM,77.0,69.8,78,29.92,6.2,SE,12.7,-,N/A,,Scattered Clouds,140,2012-11-11 14:09:00
9:13 PM,77.0,69.8,78,29.92,6.2,SE,12.7,-,N/A,,Mostly Cloudy,140,2012-11-11 14:13:00
10:00 PM,77,71,75,29.90,,SE,12.7,,,,,140,2012-11-11 15:00:00
10:00 PM,77.0,69.8,78,29.92,6.2,SE,12.7,-,N/A,,Mostly Cloudy,140,2012-11-11 15:00:00
11:00 PM,77.0,69.8,78,29.92,6.2,SE,13.8,-,N/A,,Scattered Clouds,130,2012-11-11 16:00:00